DateTimeUTC,F1_A11,F1_S11,BsB_S11,BsG_S11,BsR_S11,BbsB_S11,BbsG_S11,BbsR_S11,BaB_A11,BaG_A11,BaR_A11,Tu_S11,T_S11,Uu_S11,U_S11,P_S11,T1_A11
2021-10-25T14:00:00Z,00000200,21000000,,,,,,,-000.00,-000.17,-000.56,17.4,24.6,,00.0,0632.5,31.0
2021-10-25T14:01:00Z,00000200,21000000,,,,,,,0000.40,0000.33,0000.38,17.4,24.5,,00.0,0632.5,30.9
2021-10-25T14:02:00Z,00000200,21000000,,,,,,,0000.15,0000.41,0000.22,17.4,24.5,,00.0,0632.5,31.0
2021-10-25T14:03:00Z,00000200,61000000,,,,,,,0000.35,0000.48,0000.44,17.4,24.5,,00.0,0632.5,31.0
2021-10-25T14:04:00Z,00000200,41000000,-000.13,0000.36,0000.14,0000.11,0000.12,-000.17,0000.60,0000.03,0000.48,17.6,24.4,,00.0,0633.3,31.0
2021-10-25T14:05:00Z,00000200,01000000,0000.03,0000.07,0000.21,-000.10,0000.30,0000.05,-000.22,0000.42,0000.07,17.8,24.4,,00.0,0633.3,31.0
2021-10-25T14:06:00Z,00000200,01000000,-000.01,0000.59,0000.27,0000.26,0000.19,0000.43,0001.03,0000.53,0000.23,17.8,24.4,,00.0,0633.3,31.0
2021-10-25T14:07:00Z,00000200,01000000,0000.44,0000.27,-000.11,0000.08,0000.09,0000.22,0000.46,0000.81,0000.58,17.9,24.4,,00.0,0633.3,31.0
2021-10-25T14:08:00Z,00000200,01000000,0000.04,0000.23,0000.25,0000.30,0000.17,0000.35,-000.14,-000.12,-000.17,18.0,24.5,,00.0,0633.3,31.0
2021-10-25T14:09:00Z,00000200,01000000,0000.35,0000.41,-000.22,0000.41,0000.32,-000.07,0000.13,0000.25,0000.01,18.1,24.5,,00.0,0633.3,31.0
2021-10-25T14:10:00Z,00000200,01000000,0000.21,0000.31,-000.10,0000.54,-000.21,0000.20,0000.26,0000.04,0000.24,18.0,24.5,,00.0,0633.4,31.0
2021-10-25T14:11:00Z,00000200,01000000,0000.85,0000.21,0000.22,-000.23,0000.56,0000.16,-000.12,0000.26,0000.02,18.0,24.5,,00.0,0633.4,31.0
2021-10-25T14:12:00Z,00000200,01000000,0000.64,0000.19,0000.46,0000.22,0000.05,-000.09,-000.07,-000.55,-000.11,17.9,24.4,,00.0,0633.4,31.0
2021-10-25T14:13:00Z,00000200,01000000,0000.87,0000.48,-000.12,0000.05,0000.33,-000.15,0000.06,0000.31,0000.09,17.9,24.4,,00.0,0633.4,31.0
2021-10-25T14:14:00Z,00000200,01000000,0000.92,0000.48,0000.30,0000.73,0000.12,0000.22,0000.46,0000.14,0000.07,17.8,24.4,,00.0,0633.5,31.0
2021-10-25T14:15:00Z,00000200,01000000,0000.61,0000.12,0000.22,0000.94,0000.29,0000.23,0000.28,0000.22,0000.31,17.7,24.4,,00.0,0633.4,31.0
2021-10-25T14:16:00Z,00000200,01000000,0000.78,0000.04,0000.20,0000.55,0000.16,-000.00,-000.20,0000.10,0000.06,17.7,24.3,,00.0,0633.5,31.0
2021-10-25T14:17:00Z,00000200,01000000,0000.20,0000.14,0000.36,-000.11,0000.00,0000.10,-000.24,-000.31,-000.01,17.7,24.3,,00.0,0633.5,31.0
2021-10-25T14:18:00Z,00000200,01000000,0000.22,0000.32,-000.10,0000.49,0000.05,0000.06,0000.53,0000.40,0000.71,17.7,24.3,,00.0,0633.5,31.0
2021-10-25T14:19:00Z,00000200,01000000,0000.21,0000.42,0000.44,0000.40,0000.09,0000.06,0000.64,0000.34,-000.03,17.8,24.4,,00.0,0633.5,31.0
2021-10-25T14:20:00Z,00000200,01000000,0000.70,0000.25,-000.06,0000.38,0000.20,-000.22,0000.04,0000.44,0000.13,17.9,24.4,,00.0,0633.5,31.0
2021-10-25T14:21:00Z,00000200,01000000,0000.33,0000.38,0000.20,-000.13,0000.42,0000.10,0000.21,0000.26,0000.03,18.0,24.4,,00.0,0633.5,31.0
2021-10-25T14:22:00Z,00000200,01000000,0000.77,0000.13,0000.04,0000.29,0000.47,0000.13,-000.08,-000.35,0000.16,18.1,24.4,,00.0,0633.6,31.0
2021-10-25T14:23:00Z,00000200,01000000,0000.09,0000.11,0000.26,0000.11,0000.35,0000.15,0000.24,0000.15,-000.03,18.1,24.5,,00.0,0633.6,31.0
2021-10-25T14:24:00Z,00000200,01000000,-000.05,0000.52,0000.22,0000.47,0000.36,0000.35,-000.48,0000.00,-000.12,18.1,24.5,,00.0,0633.6,31.0
2021-10-25T14:25:00Z,00000200,01000000,0000.54,0000.07,0000.29,0000.06,-000.14,0000.08,-000.04,-000.35,-000.23,18.0,24.4,,00.0,0633.7,31.0
2021-10-25T14:26:00Z,00000200,01000000,0000.02,0000.38,0000.09,0000.63,0000.32,0000.09,0000.26,0000.10,0000.01,17.9,24.4,,00.0,0633.7,31.0
2021-10-25T14:27:00Z,00000200,01000000,0000.21,0000.40,-000.14,0000.49,0000.27,0000.05,-000.07,-000.08,0000.10,17.9,24.4,,00.0,0633.7,31.0
2021-10-25T14:28:00Z,00000200,01000000,0000.65,0000.23,-000.13,0000.71,0000.19,0000.07,-000.08,-000.13,-000.30,17.8,24.3,,00.0,0633.7,31.0
2021-10-25T14:29:00Z,00000200,01000000,0000.87,0000.76,-000.13,0000.41,0000.55,0000.02,-000.09,0000.55,0000.40,17.8,24.3,,00.0,0633.7,30.9
2021-10-25T14:30:00Z,00000200,01000000,0000.76,0000.47,0000.46,0000.33,0000.23,0000.12,0000.49,-000.03,0000.30,17.7,24.3,,00.0,0633.7,30.9
2021-10-25T14:31:00Z,00000200,01000000,0000.73,0000.25,0000.34,0000.48,0000.20,0000.05,-000.09,0000.02,-000.11,17.7,24.2,,00.0,0633.8,30.9
2021-10-25T14:32:00Z,00000200,01000000,0000.37,0000.11,0000.16,-000.02,-000.10,0000.28,0000.34,0000.18,0000.28,17.7,24.2,,00.0,0633.8,31.0
2021-10-25T14:33:00Z,00000200,01000000,0000.93,0000.14,0000.37,-000.03,0000.23,-000.08,0000.12,-000.09,0000.24,17.7,24.3,,00.0,0633.9,31.0
2021-10-25T14:34:00Z,00000200,01000000,-000.21,0000.45,0000.16,-000.15,0000.43,-000.10,0000.45,0000.41,0000.32,17.8,24.3,,00.0,0633.9,31.0
2021-10-25T14:35:00Z,00000200,01000000,0000.17,0000.15,0000.12,-000.16,0000.00,0000.38,-000.53,0000.10,-000.03,17.9,24.3,,00.0,0633.9,31.0
2021-10-25T14:36:00Z,00000200,01000000,0000.36,0000.28,-000.02,0000.20,0000.45,0000.04,0000.43,-000.07,-000.36,17.9,24.3,,00.0,0634.0,31.0
2021-10-25T14:37:00Z,00000200,01000000,0000.21,0000.36,0000.35,0000.54,0000.19,0000.30,0000.19,0000.65,0000.65,18.0,24.4,,00.0,0634.0,31.1
2021-10-25T14:38:00Z,00000200,01000000,0000.86,0000.44,0000.11,0000.65,0000.38,0000.09,-000.27,-000.30,-000.24,18.1,24.4,,00.0,0634.0,31.0
2021-10-25T14:39:00Z,00000200,01000000,0000.51,0000.20,0000.05,0000.05,0000.16,0000.04,0000.53,0000.27,-000.08,18.0,24.4,,00.0,0634.0,31.0
2021-10-25T14:40:00Z,00000200,01000000,0000.22,0000.63,0000.47,0000.11,0000.56,0000.49,-000.09,0000.05,0000.21,18.0,24.4,,00.0,0634.1,31.0
2021-10-25T14:41:00Z,00000200,01000000,0000.57,0000.29,-000.16,0000.35,0000.37,0000.07,0000.14,0000.05,-000.12,17.9,24.4,,00.0,0634.1,31.0
2021-10-25T14:42:00Z,00000200,01000000,0000.15,0000.62,0000.29,-000.55,0000.26,0000.34,-000.24,-000.51,0000.04,17.9,24.3,,00.0,0634.1,31.0
2021-10-25T14:43:00Z,00000200,01000000,0000.21,0000.49,0000.26,0000.04,0000.13,0000.14,0000.37,0000.39,0000.47,17.8,24.3,,00.0,0634.1,31.0
2021-10-25T14:44:00Z,00000200,01000000,-000.09,0000.02,0000.20,-000.51,0000.12,0000.36,-000.05,0000.08,-000.23,17.7,24.3,,00.0,0634.1,30.9
2021-10-25T14:45:00Z,00000200,01000000,-000.54,0000.61,0000.25,-000.02,0000.48,0000.27,0000.38,0000.24,0000.16,17.7,24.3,,00.0,0634.1,30.9
2021-10-25T14:46:00Z,00000200,01000000,0000.72,0000.21,-000.08,0000.23,0000.08,-000.20,-000.10,-000.16,0000.32,17.6,24.2,,00.0,0634.1,30.9
2021-10-25T14:47:00Z,00000200,01000000,0001.40,0000.34,0000.10,0000.40,0000.33,0000.34,-000.11,0000.70,-000.01,17.6,24.2,,00.0,0634.2,31.0
2021-10-25T14:48:00Z,00000200,01000000,0001.25,0000.04,0000.06,-000.27,0000.30,-000.03,0000.98,0000.37,0000.74,17.7,24.2,,00.0,0634.2,31.0
2021-10-25T14:49:00Z,00000200,01000000,0000.38,0000.46,0000.39,0000.19,0000.29,-000.08,-000.01,0000.04,-000.05,17.8,24.3,,00.0,0634.2,31.0
2021-10-25T14:50:00Z,00000200,01000000,0000.13,0000.10,0000.71,-000.12,0000.38,0000.10,-000.31,0000.22,-000.19,17.8,24.3,,00.0,0634.2,31.0
2021-10-25T14:51:00Z,00000200,01000000,0000.53,0000.32,0000.24,-000.40,-000.03,0000.09,0000.07,-000.22,0000.36,17.9,24.3,,00.0,0634.2,31.0
2021-10-25T14:52:00Z,00000200,01000000,0001.04,0000.31,0000.38,-000.31,-000.14,0000.00,0000.34,0000.33,-000.31,17.8,24.3,,00.0,0634.3,31.0
2021-10-25T14:53:00Z,00000200,01000000,0000.23,-000.01,-000.03,0000.27,0000.61,-000.04,0000.41,0000.15,0000.77,17.8,24.3,,00.0,0634.2,31.0
2021-10-25T14:54:00Z,00000200,01000000,0000.87,0000.41,0000.06,0000.19,0000.27,-000.15,-000.30,-000.05,-000.51,17.7,24.3,,00.0,0634.3,31.0
2021-10-25T14:55:00Z,00000200,01000000,0000.40,0000.16,0000.03,-000.23,0000.18,0000.26,0000.58,0000.30,0000.32,17.7,24.2,,00.0,0634.3,31.0
2021-10-25T14:56:00Z,00000200,01000000,0000.69,0000.56,0000.24,-000.17,-000.03,0000.15,-000.17,0000.02,0000.08,17.6,24.2,,00.0,0634.3,31.0
2021-10-25T14:57:00Z,00000200,41000000,,,,,,,-000.28,-000.54,-000.15,17.6,24.2,,00.0,0634.2,30.9
2021-10-25T14:58:00Z,00000200,61000000,,,,,,,0000.24,0000.26,-000.06,17.3,24.2,,00.0,0633.5,30.9
2021-10-25T14:59:00Z,00000200,21000000,,,,,,,0000.09,0000.28,0000.38,17.2,24.3,,00.0,0633.5,30.9
